Regional Weather Roundup
Issued by NWS State College, PA

Home | Current Version | Previous Version | Text Only | Print | Product List | Glossary Off
Versions: 1 2 3 4 5 6 7 8 9 10 11 12 13 14 15 16 17 18 19 20 21 22 23 24 25 26 27 28 29 30 31 32 33 34 35 36 37 38 39 40 41 42 43 44 45 46 47 48 49 50

000
ASUS41 KCTP 311403
RWRCTP

REGIONAL WEATHER ROUNDUP
NATIONAL WEATHER SERVICE STATE COLLEGE PA
1000 AM EDT THU JUL 31 2014

Note: "fair" indicates few or no clouds below 12,000 feet with no
significant weather and/or obstructions to visibility.

* = STATION THAT DOES NOT REPORT PRECIPITATION /E.G. RAIN...SNOW...ETC/
    THUNDER OR FOG.

PAZ002>004-007>009-013>016-020>023-029>032-311500-
WESTERN PENNSYLVANIA

CITY           SKY/WX    TMP DP  RH WIND       PRES   REMARKS
ERIE           PTSUNNY   69  59  70 SW10      30.03S
MEADVILLE      PTSUNNY   64  58  80 SW6       30.07S
FRANKLIN*      CLOUDY    63  57  82 SW7       30.10S
NEW CASTLE     CLOUDY    66  60  81 CALM      30.09S
BEAVER COUNTY  CLOUDY    63  59  88 W3        30.10S
BUTLER*        CLOUDY    63  57  82 SW8       30.12R
PITTSBURGH INT MOSUNNY   66  59  78 SW7       30.09S
PITTSBURGH     PTSUNNY   65  58  78 S6        30.10R
INDIANA*       PTSUNNY   61  59  94 W7        30.15S FOG
LATROBE        MOSUNNY   64  63  94 SW14      30.12S
WASHINGTON CO* CLOUDY    66  61  82 W6        30.12R
$$

PAZ004>006-010>012-017>019-024>028-033>037-041-042-045-046-049>053-311500-
CENTRAL PENNSYLVANIA

CITY           SKY/WX    TMP DP  RH WIND       PRES   REMARKS
BRADFORD       CLOUDY    59  55  87 SW7       30.09R
DUBOIS         CLOUDY    61  58  90 SW9       30.10R FOG
CLEARFIELD     CLOUDY    60  59  96 SW9       30.10S
JOHNSTOWN      CLOUDY    60  57  89 SW6       30.13R
ALTOONA        CLOUDY    65  58  78 SW9       30.13R
STATE COLLEGE  NOT AVBL
WILLIAMSPORT   CLOUDY    63  58  83 CALM      30.08S HAZE
SELINSGROVE    CLOUDY    65  60  84 VRB6      30.11S
FT INDIANTOWN  SUNNY     68  66  94 VRB2      30.11F
CAPITAL CITY   SUNNY     69  62  78 VRB3      30.10F
HARRISBURG     SUNNY     71  62  73 CALM      30.09F
YORK           SUNNY     72  62  71 VRB3      30.10S
$$

PAZ038>040-043-044-047-048-054-055-060>062-067>071-311500-
EASTERN PENNSYLVANIA

CITY           SKY/WX    TMP DP  RH WIND       PRES   REMARKS
SCRANTON       MOSUNNY   69  58  67 VRB7      30.09S
MOUNT POCONO   MOSUNNY   67  56  67 W10G17    30.12S
ALLENTOWN      SUNNY     73  59  61 SW7       30.10S
QUAKERTOWN*    SUNNY     72  59  64 W8        30.11S
READING        SUNNY     74  60  61 W7        30.08F
LANCASTER      SUNNY     71  61  70 W3        30.10S
COATESVILLE    SUNNY     72  63  73 SW5       30.12S
POTTSTOWN      SUNNY     71  60  68 VRB3      30.11F
BLUE BELL      SUNNY     77  63  61 SW8       30.10S
DOYLESTOWN     SUNNY     71  62  73 S8        30.10F
WILLOW GROVE   NOT AVBL
NORTH PHILA    SUNNY     76  60  57 SW8       30.11F
PHILADELPHIA   MOSUNNY   76  62  62 SW9       30.11S
$$


USA.gov is the U.S. government's official web portal to all federal, state and local government web resources and services.